Zapata, TX

12:52 PM CDT on October 01, 2016 (GMT -0500)
Zapata

Weather History for KAPY - May, 2014

Change the Weather History Date:

Saturday, May 3, 2014

  Actual Average (KLRD) Record (KLRD)
Temperature  
Mean Temperature 72 °F 80 °F  
Max Temperature 91 °F 91 °F 107 °F (1998)
Min Temperature 53 °F 69 °F 45 °F (1918)
Degree Days  
Heating Degree Days 0 0  
Month to date heating degree days 0  
Since 1 July heating degree days 926  
Cooling Degree Days 7 15  
Month to date cooling degree days 44  
Year to date cooling degree days 644  
Growing Degree Days 22 (Base 50)    
Moisture  
Dew Point 37 °F    
Average Humidity 30    
Maximum Humidity 80    
Minimum Humidity 12    
Precipitation  
Precipitation 0.00 in 0.07 in 2.96 in (1981)
Month to date precipitation 0.21  
Year to date precipitation 4.59  
Sea Level Pressure  
Sea Level Pressure 30.08 in    
Wind  
Wind Speed 5 mph (SSE)    
Max Wind Speed 14 mph    
Max Gust Speed 21 mph    
Visibility 10 miles    
Events      
T = Trace of Precipitation, MM = Missing Value Source: NWS Daily Summary

Daily Weather History Graph

Daily Weather History Graph

Search for Another Location

Airport or City:

Trip Planner

Search our weather history database for the weather conditions in past years. The results will help you decide how hot, cold, wet, or windy it might be!

Date:

Astronomy

May. 03, 2014 Rise Set
Actual Time 6:56 AM CDT 8:11 PM CDT
Civil Twilight 6:32 AM CDT 8:35 PM CDT
Nautical Twilight 6:03 AM CDT 9:05 PM CDT
Astronomical Twilight 5:32 AM CDT 9:35 PM CDT
Moon 10:32 AM CDT (5/3) No Moon Set
Length of Visible Light 14h 03m
Length of Day
13h 14m
Waxing Crescent, 20% of the Moon is Illuminated
May 3
Waxing Crescent
May 6
First Quarter
May 14
Full
May 21
Last Quarter
May 28
New

Hourly Weather History & Observations

Time (CDT) Temp. Dew Point Humidity Pressure Visibility Wind Dir Wind Speed Gust Speed Precip Events Conditions
12:15 AM 53.8 °F 34.0 °F 47% 30.10 in 10.0 mi Calm Calm - N/A   Clear
12:35 AM 54.3 °F 34.0 °F 46% 30.10 in 10.0 mi Calm Calm - N/A   Clear
12:55 AM 54.1 °F 34.0 °F 47% 30.10 in 10.0 mi Calm Calm - N/A   Clear
1:15 AM 54.3 °F 34.0 °F 46% 30.10 in 10.0 mi SSE 4.6 mph - N/A   Clear
1:35 AM 59.0 °F 35.8 °F 42% 30.10 in 10.0 mi SSE 3.5 mph - N/A   Clear
2:35 AM 60.3 °F 41.4 °F 50% 30.10 in 10.0 mi SSE 3.5 mph - N/A   Clear
2:50 AM 59.0 °F 41.9 °F 53% 30.09 in 10.0 mi SSE 3.5 mph - N/A   Clear
3:15 AM 57.7 °F 42.4 °F 57% 30.09 in 10.0 mi Calm Calm - N/A   Clear
3:35 AM 56.7 °F 42.8 °F 60% 30.09 in 10.0 mi Calm Calm - N/A   Clear
3:50 AM 58.1 °F 45.7 °F 63% 30.08 in 10.0 mi SSE 5.8 mph - N/A   Clear
4:10 AM 60.1 °F 47.3 °F 63% 30.07 in 10.0 mi SSE 4.6 mph - N/A   Clear
7:15 AM 55.0 °F 48.9 °F 80% 30.09 in 10.0 mi SE 3.5 mph - N/A   Clear
7:35 AM 55.4 °F 48.6 °F 78% 30.10 in 10.0 mi Calm Calm - N/A   Clear
7:55 AM 57.6 °F 49.5 °F 74% 30.11 in 10.0 mi Calm Calm - N/A   Clear
8:15 AM 60.8 °F 50.9 °F 70% 30.11 in 10.0 mi Calm Calm - N/A   Clear
8:50 AM 66.7 °F 52.2 °F 59% 30.12 in 10.0 mi SSE 4.6 mph - N/A   Clear
9:10 AM 68.9 °F 51.8 °F 54% 30.12 in 10.0 mi SSE 6.9 mph - N/A   Clear
9:30 AM 72.1 °F 49.6 °F 45% 30.12 in 10.0 mi South 9.2 mph - N/A   Clear
10:15 AM 76.8 °F 47.3 °F 35% 30.13 in 10.0 mi South 8.1 mph - N/A   Clear
10:35 AM 77.9 °F 46.4 °F 33% 30.13 in 10.0 mi South 6.9 mph - N/A   Clear
10:55 AM 80.1 °F 45.5 °F 30% 30.13 in 10.0 mi SSW 6.9 mph - N/A   Clear
11:15 AM 82.0 °F 42.6 °F 25% 30.13 in 10.0 mi South 9.2 mph - N/A   Clear
11:35 AM 83.8 °F 39.4 °F 21% 30.13 in 10.0 mi SSW 5.8 mph - N/A   Clear
11:55 AM 84.9 °F 36.0 °F 17% 30.12 in 10.0 mi SE 8.1 mph - N/A   Clear
12:15 PM 85.8 °F 30.6 °F 14% 30.12 in 10.0 mi Calm Calm - N/A   Clear
12:35 PM 85.6 °F 32.0 °F 15% 30.11 in 10.0 mi West 3.5 mph - N/A   Clear
12:55 PM 88.0 °F 32.0 °F 14% 30.10 in 10.0 mi East 3.5 mph - N/A   Clear
1:15 PM 87.4 °F 31.6 °F 14% 30.10 in 10.0 mi Calm Calm - N/A   Clear
1:35 PM 89.1 °F 32.0 °F 13% 30.09 in 10.0 mi SE 5.8 mph 17.3 mph N/A   Clear
1:55 PM 89.4 °F 32.9 °F 13% 30.08 in 10.0 mi SSE 3.5 mph - N/A   Clear
2:15 PM 88.7 °F 32.9 °F 14% 30.07 in 10.0 mi South 4.6 mph - N/A   Clear
2:35 PM 88.3 °F 33.1 °F 14% 30.06 in 10.0 mi SW 5.8 mph - N/A   Clear
2:55 PM 88.9 °F 32.5 °F 13% 30.06 in 10.0 mi SSW 8.1 mph 17.3 mph N/A   Clear
3:15 PM 89.6 °F 32.2 °F 13% 30.05 in 10.0 mi South 10.4 mph 16.1 mph N/A   Clear
3:35 PM 90.7 °F 32.2 °F 12% 30.04 in 10.0 mi South 9.2 mph 19.6 mph N/A   Clear
3:55 PM 90.7 °F 31.1 °F 12% 30.03 in 10.0 mi SE 8.1 mph - N/A   Clear
4:15 PM 90.7 °F 32.2 °F 12% 30.03 in 10.0 mi SE 9.2 mph 19.6 mph N/A   Clear
4:35 PM 90.9 °F 32.2 °F 12% 30.02 in 10.0 mi SE 11.5 mph 18.4 mph N/A   Clear
4:55 PM 91.0 °F 32.7 °F 13% 30.01 in 10.0 mi ESE 12.7 mph 16.1 mph N/A   Clear
5:15 PM 90.3 °F 33.8 °F 13% 30.01 in 10.0 mi SSW 11.5 mph 17.3 mph N/A   Clear
5:35 PM 89.8 °F 33.3 °F 13% 30.01 in 10.0 mi South 9.2 mph 19.6 mph N/A   Clear
5:55 PM 90.3 °F 32.0 °F 13% 30.01 in 10.0 mi SSE 11.5 mph 19.6 mph N/A   Clear
6:15 PM 89.6 °F 32.0 °F 13% 30.01 in 10.0 mi SSE 13.8 mph 20.7 mph N/A   Clear
6:35 PM 88.7 °F 32.0 °F 13% 30.01 in 10.0 mi SSE 12.7 mph 19.6 mph N/A   Clear
6:55 PM 88.2 °F 32.9 °F 14% 30.01 in 10.0 mi ESE 11.5 mph - N/A   Clear
7:20 PM 86.5 °F 31.8 °F 14% 30.01 in 10.0 mi SE 10.4 mph - N/A   Clear
7:35 PM 85.8 °F 30.9 °F 14% 30.02 in 10.0 mi SSE 8.1 mph 19.6 mph N/A   Clear
7:55 PM 84.4 °F 30.0 °F 14% 30.02 in 10.0 mi SE 9.2 mph 16.1 mph N/A   Clear
8:35 PM 80.6 °F 29.7 °F 16% 30.04 in 10.0 mi SE 6.9 mph - N/A   Clear
8:55 PM 79.0 °F 30.6 °F 17% 30.04 in 10.0 mi SE 6.9 mph - N/A   Clear
9:10 PM 77.5 °F 32.0 °F 19% 30.04 in 10.0 mi SE 5.8 mph - N/A   Clear
9:30 PM 76.8 °F 32.9 °F 20% 30.05 in 10.0 mi SE 5.8 mph - N/A   Clear
9:55 PM 75.6 °F 34.5 °F 22% 30.06 in 10.0 mi SE 6.9 mph - N/A   Clear
10:15 PM 75.0 °F 36.1 °F 24% 30.07 in 10.0 mi SE 6.9 mph - N/A   Clear
10:35 PM 75.0 °F 38.1 °F 26% 30.08 in 10.0 mi SE 8.1 mph 16.1 mph N/A   Clear
10:55 PM 73.4 °F 38.1 °F 28% 30.10 in 10.0 mi SSE 9.2 mph - N/A   Clear
11:15 PM 73.4 °F 35.4 °F 25% 30.10 in 10.0 mi SE 11.5 mph 20.7 mph N/A   Clear
11:30 PM 72.5 °F 34.3 °F 25% 30.11 in 10.0 mi SE 10.4 mph - N/A   Clear
11:55 PM 71.6 °F 33.8 °F 25% 30.11 in 10.0 mi SE 9.2 mph 16.1 mph N/A   Clear